• în România
  • Lista ţărilor
  • Pe 7 zile
  • Temperatura apei
  • Hartă satelitară
  • Meteo pe hartă
  • Widget-uri
  • user-avatar
    Intrare

    Meteo pe oră la Lethem

    Astăzi, 23 Octombrie, Marţi

    Timp Temperatura Precipitaţii Vânt Presiune Umiditate
    00:00 +28°C° 0 mm 1 m/s 749 mmHg 76%
    01:00 +28°C° 0 mm 1 m/s 749 mmHg 77%
    02:00 +28°C° 0 mm 1 m/s 749 mmHg 78%
    03:00 +27°C° 0 mm 1 m/s 749 mmHg 78%
    04:00 +27°C° 0 mm 1 m/s 749 mmHg 79%
    05:00 +27°C° 0 mm 1 m/s 749 mmHg 80%
    06:00 +28°C° 0 mm 2 m/s 750 mmHg 76%
    07:00 +28°C° 0 mm 2 m/s 750 mmHg 72%
    08:00 +29°C° 0 mm 3 m/s 750 mmHg 68%
    09:00 +31°C° 0 mm 3 m/s 751 mmHg 63%
    10:00 +33°C° 0 mm 4 m/s 751 mmHg 57%
    11:00 +35°C° 0 mm 4 m/s 751 mmHg 51%
    12:00 +35°C° 0 mm 4 m/s 750 mmHg 49%
    13:00 +36°C° 0 mm 4 m/s 749 mmHg 46%
    14:00 +37°C° 0 mm 4 m/s 748 mmHg 43%
    15:00 +36°C° 0 mm 4 m/s 748 mmHg 46%
    16:00 +36°C° 0 mm 3 m/s 747 mmHg 49%
    17:00 +35°C° 0 mm 3 m/s 747 mmHg 51%
    18:00 +34°C° 0 mm 3 m/s 748 mmHg 56%
    19:00 +31°C° 0 mm 2 m/s 748 mmHg 61%
    20:00 +30°C° 0 mm 2 m/s 749 mmHg 67%
    21:00 +29°C° 0 mm 2 m/s 749 mmHg 68%
    22:00 +29°C° 0 mm 2 m/s 749 mmHg 69%
    23:00 +29°C° 0 mm 2 m/s 750 mmHg 70%

    Mâine, 24 Octombrie, Miercuri

    Timp Temperatura Precipitaţii Vânt Presiune Umiditate
    00:00 +28°C° 0 mm 2 m/s 749 mmHg 71%
    01:00 +28°C° 0 mm 2 m/s 749 mmHg 72%
    02:00 +28°C° 0 mm 2 m/s 748 mmHg 73%
    03:00 +27°C° 0 mm 2 m/s 748 mmHg 75%
    04:00 +27°C° 0 mm 3 m/s 749 mmHg 77%
    05:00 +27°C° 0 mm 3 m/s 749 mmHg 79%
    06:00 +28°C° 0 mm 4 m/s 749 mmHg 74%
    07:00 +29°C° 0 mm 4 m/s 750 mmHg 69%
    08:00 +30°C° 0 mm 5 m/s 751 mmHg 64%
    09:00 +33°C° 0 mm 5 m/s 751 mmHg 56%
    10:00 +35°C° 0 mm 5 m/s 750 mmHg 49%
    11:00 +37°C° 0 mm 5 m/s 750 mmHg 41%
    12:00 +39°C° 0 mm 5 m/s 749 mmHg 39%
    13:00 +40°C° 0 mm 5 m/s 748 mmHg 36%
    14:00 +41°C° 0 mm 4 m/s 747 mmHg 34%
    15:00 +40°C° 0 mm 4 m/s 747 mmHg 37%
    16:00 +38°C° 0 mm 3 m/s 747 mmHg 40%
    17:00 +37°C° 0 mm 3 m/s 746 mmHg 42%
    18:00 +36°C° 0 mm 3 m/s 747 mmHg 46%
    19:00 +34°C° 0 mm 3 m/s 748 mmHg 49%
    20:00 +33°C° 0 mm 3 m/s 748 mmHg 53%
    21:00 +31°C° 0 mm 3 m/s 749 mmHg 53%
    22:00 +31°C° 0 mm 3 m/s 749 mmHg 54%
    23:00 +30°C° 0 mm 3 m/s 749 mmHg 55%

    Poimâine, 25 Octombrie, Joi

    Timp Temperatura Precipitaţii Vânt Presiune Umiditate
    00:00 +30°C° 0 mm 3 m/s 749 mmHg 57%
    01:00 +29°C° 0 mm 3 m/s 748 mmHg 59%
    02:00 +29°C° 0 mm 3 m/s 748 mmHg 61%
    03:00 +28°C° 0 mm 3 m/s 748 mmHg 64%
    04:00 +28°C° 0 mm 3 m/s 748 mmHg 68%
    05:00 +27°C° 0 mm 4 m/s 748 mmHg 72%
    06:00 +28°C° 0 mm 4 m/s 749 mmHg 69%
    07:00 +29°C° 0 mm 5 m/s 750 mmHg 66%
    08:00 +32°C° 0 mm 5 m/s 751 mmHg 63%
    09:00 +33°C° 0 mm 5 m/s 751 mmHg 57%
    10:00 +35°C° 0 mm 5 m/s 750 mmHg 51%
    11:00 +37°C° 0 mm 5 m/s 750 mmHg 45%
    12:00 +39°C° 0 mm 5 m/s 749 mmHg 42%
    13:00 +40°C° 0 mm 5 m/s 748 mmHg 40%
    14:00 +40°C° 0 mm 4 m/s 747 mmHg 37%
    15:00 +40°C° 0 mm 4 m/s 747 mmHg 39%
    16:00 +38°C° 0 mm 4 m/s 746 mmHg 41%
    17:00 +37°C° 0 mm 3 m/s 746 mmHg 43%
    18:00 +36°C° 0 mm 3 m/s 747 mmHg 47%
    19:00 +34°C° 0 mm 3 m/s 747 mmHg 50%
    20:00 +33°C° 0 mm 3 m/s 748 mmHg 54%
    21:00 +31°C° 0 mm 3 m/s 748 mmHg 56%
    22:00 +31°C° 0 mm 3 m/s 748 mmHg 58%
    23:00 +30°C° 0 mm 3 m/s 749 mmHg 60%

    26 Octombrie, Vineri

    Timp Temperatura Precipitaţii Vânt Presiune Umiditate
    00:00 +29°C° 0 mm 3 m/s 748 mmHg 62%
    01:00 +29°C° 0 mm 3 m/s 748 mmHg 64%
    02:00 +29°C° 0 mm 4 m/s 747 mmHg 67%
    03:00 +28°C° 0 mm 4 m/s 748 mmHg 69%
    04:00 +28°C° 0 mm 4 m/s 748 mmHg 71%
    05:00 +27°C° 0 mm 4 m/s 748 mmHg 73%
    06:00 +29°C° 0 mm 5 m/s 749 mmHg 70%
    07:00 +30°C° 0 mm 5 m/s 750 mmHg 67%
    08:00 +32°C° 0 mm 6 m/s 751 mmHg 63%
    09:00 +34°C° 0 mm 6 m/s 750 mmHg 57%
    10:00 +35°C° 0 mm 6 m/s 750 mmHg 51%
    11:00 +37°C° 0 mm 5 m/s 750 mmHg 44%
    12:00 +39°C° 0 mm 5 m/s 749 mmHg 41%
    13:00 +40°C° 0 mm 5 m/s 748 mmHg 39%
    14:00 +40°C° 0 mm 4 m/s 747 mmHg 36%
    15:00 +40°C° 0 mm 4 m/s 747 mmHg 39%
    16:00 +38°C° 0 mm 4 m/s 747 mmHg 41%
    17:00 +37°C° 0 mm 4 m/s 747 mmHg 44%
    18:00 +36°C° 0 mm 4 m/s 747 mmHg 48%
    19:00 +34°C° 0 mm 3 m/s 748 mmHg 52%
    20:00 +33°C° 0 mm 3 m/s 748 mmHg 57%
    21:00 +31°C° 0 mm 3 m/s 749 mmHg 59%
    22:00 +31°C° 0 mm 3 m/s 749 mmHg 61%
    23:00 +30°C° 0 mm 3 m/s 749 mmHg 63%

    27 Octombrie, Sâmbătă

    Timp Temperatura Precipitaţii Vânt Presiune Umiditate
    00:00 +30°C° 0 mm 3 m/s 749 mmHg 65%
    01:00 +29°C° 0 mm 4 m/s 748 mmHg 68%
    02:00 +29°C° 0 mm 4 m/s 748 mmHg 70%
    03:00 +28°C° 0 mm 4 m/s 748 mmHg 72%
    04:00 +28°C° 0 mm 4 m/s 749 mmHg 73%
    05:00 +28°C° 0 mm 4 m/s 749 mmHg 75%
    06:00 +28°C° 0 mm 4 m/s 750 mmHg 72%
    07:00 +29°C° 0 mm 4 m/s 751 mmHg 69%
    08:00 +30°C° 0 mm 5 m/s 751 mmHg 66%
    09:00 +33°C° 0 mm 5 m/s 751 mmHg 60%
    10:00 +34°C° 0 mm 5 m/s 751 mmHg 55%
    11:00 +36°C° 0 mm 5 m/s 751 mmHg 50%
    12:00 +37°C° 0 mm 5 m/s 750 mmHg 46%
    13:00 +38°C° 0 mm 4 m/s 749 mmHg 42%
    14:00 +40°C° 0 mm 4 m/s 748 mmHg 38%
    15:00 +38°C° 0 mm 4 m/s 748 mmHg 40%
    16:00 +38°C° 0 mm 4 m/s 747 mmHg 42%
    17:00 +37°C° 0 mm 3 m/s 747 mmHg 45%
    18:00 +36°C° 0.1 mm 3 m/s 748 mmHg 50%
    19:00 +34°C° 0.1 mm 3 m/s 749 mmHg 54%
    20:00 +31°C° 0.1 mm 3 m/s 749 mmHg 59%
    21:00 +31°C° 0.2 mm 3 m/s 749 mmHg 63%
    22:00 +30°C° 0.2 mm 3 m/s 749 mmHg 66%
    23:00 +29°C° 0.2 mm 3 m/s 749 mmHg 70%

    28 Octombrie, Duminică

    Timp Temperatura Precipitaţii Vânt Presiune Umiditate
    00:00 +29°C° 0.1 mm 3 m/s 749 mmHg 72%
    01:00 +28°C° 0.1 mm 3 m/s 749 mmHg 73%
    02:00 +28°C° 0.1 mm 3 m/s 749 mmHg 75%
    03:00 +27°C° 0 mm 3 m/s 749 mmHg 76%
    04:00 +27°C° 0 mm 3 m/s 749 mmHg 77%
    05:00 +27°C° 0 mm 3 m/s 750 mmHg 79%
    06:00 +28°C° 0 mm 4 m/s 750 mmHg 73%
    07:00 +30°C° 0 mm 4 m/s 751 mmHg 68%
    08:00 +32°C° 0 mm 5 m/s 752 mmHg 62%
    09:00 +34°C° 0 mm 4 m/s 751 mmHg 57%
    10:00 +35°C° 0 mm 4 m/s 751 mmHg 51%
    11:00 +37°C° 0 mm 4 m/s 751 mmHg 45%
    12:00 +38°C° 0 mm 4 m/s 750 mmHg 42%
    13:00 +40°C° 0 mm 4 m/s 749 mmHg 40%
    14:00 +40°C° 0 mm 4 m/s 748 mmHg 37%
    15:00 +40°C° 0 mm 4 m/s 748 mmHg 39%
    16:00 +38°C° 0 mm 4 m/s 748 mmHg 41%
    17:00 +37°C° 0 mm 4 m/s 747 mmHg 43%
    18:00 +36°C° 0.1 mm 4 m/s 748 mmHg 50%
    19:00 +34°C° 0.1 mm 3 m/s 749 mmHg 56%
    20:00 +31°C° 0.1 mm 3 m/s 749 mmHg 63%
    21:00 +30°C° 0.2 mm 4 m/s 749 mmHg 66%
    22:00 +29°C° 0.2 mm 4 m/s 749 mmHg 69%
    23:00 +29°C° 0.2 mm 4 m/s 749 mmHg 73%

    29 Octombrie, Luni

    Timp Temperatura Precipitaţii Vânt Presiune Umiditate
    00:00 +28°C° 0 mm 4 m/s 749 mmHg 74%
    01:00 +28°C° 0 mm 4 m/s 749 mmHg 75%
    02:00 +28°C° 0 mm 4 m/s 749 mmHg 76%
    03:00 +28°C° 0 mm 4 m/s 749 mmHg 77%
    04:00 +27°C° 0 mm 3 m/s 749 mmHg 78%
    05:00 +27°C° 0 mm 3 m/s 749 mmHg 79%
    06:00 +28°C° 0 mm 4 m/s 750 mmHg 76%
    07:00 +29°C° 0 mm 4 m/s 751 mmHg 73%
    08:00 +29°C° 0 mm 5 m/s 751 mmHg 70%
    09:00 +32°C° 0 mm 5 m/s 751 mmHg 64%
    10:00 +34°C° 0 mm 4 m/s 751 mmHg 58%
    11:00 +35°C° 0 mm 4 m/s 750 mmHg 53%
    12:00 +36°C° 0 mm 4 m/s 749 mmHg 49%
    13:00 +37°C° 0 mm 4 m/s 748 mmHg 45%
    14:00 +38°C° 0 mm 4 m/s 747 mmHg 41%
    15:00 +38°C° 0 mm 4 m/s 747 mmHg 42%
    16:00 +37°C° 0 mm 4 m/s 747 mmHg 44%
    17:00 +36°C° 0 mm 3 m/s 747 mmHg 46%
    18:00 +35°C° 0 mm 3 m/s 748 mmHg 51%
    19:00 +34°C° 0 mm 3 m/s 748 mmHg 56%
    20:00 +31°C° 0 mm 3 m/s 749 mmHg 61%
    21:00 +30°C° 0.1 mm 3 m/s 749 mmHg 64%
    22:00 +30°C° 0.1 mm 3 m/s 749 mmHg 68%
    23:00 +29°C° 0.1 mm 3 m/s 749 mmHg 72%
    Arată mai mult